Hourly Data Report for October 21, 2021

OTTAWA INTL A
ONTARIO
Current Station Operator: NAVCAN

45°19'00.000" N
75°40'00.000" W
114.90 m
6106001
71628
YOW

Download Data

Hourly Data (October 2021)
Hourly Data Report for October 21, 2021
TIME
LST
Temp Definition
°C
Dew Point Definition
°C
Rel Hum Definition
%
Precip. Amount Definition
mm

Wind Dir Definition
10's deg

Wind Spd Definition
km/h
Visibility Definition
km
Stn Press Definition
kPa
Hmdx Definition


Wind Chill Definition


Weather Definition


00:00 10.9 9.9 93   26 8 24.1 99.94     LegendNANA
01:00 10.6 7.8 83   31 13 24.1 99.94     Mostly Cloudy
02:00 11.3 6.9 74   34 9 24.1 99.94     LegendNANA
03:00 10.7 7.0 78   29 7 24.1 99.96     LegendNANA
04:00 11.1 6.2 71   34 10 24.1 99.94     Rain
05:00 10.7 6.5 75   36 7 24.1 99.91     Rain
06:00 9.5 8.3 92   36 2 24.1 99.91     Rain
07:00 9.3 8.5 95   10 5 24.1 99.85     Cloudy
08:00 9.8 8.4 91   8 7 24.1 99.83     Rain
09:00 9.6 8.8 95   10 13 12.9 99.82     Rain
10:00 10.1 9.7 97   9 8 9.7 99.76     Rain, Fog
11:00 11.1 10.8 98   10 9 6.4 99.67     Rain, Fog
12:00 13.5 13.3 99   14 9 6.4 99.51     Rain, Fog
13:00 14.8 13.9 94   19 12 16.1 99.48     Cloudy
14:00 15.4 13.9 91   19 14 16.1 99.40     LegendNANA
15:00 16.0 14.2 89   19 12 16.1 99.31     LegendNANA
16:00 15.7 13.6 87   17 10 16.1 99.32     Mostly Cloudy
17:00 14.9 13.4 91   12 8 16.1 99.27     LegendNANA
18:00 14.6 13.1 91   14 10 16.1 99.23     LegendNANA
19:00 14.6 13.1 91   15 10 24.1 99.19     Cloudy
20:00 14.4 13.1 92   18 10 16.1 99.12     Rain
21:00 14.0 13.0 93   15 5 24.1 99.06     Rain
22:00 14.4 13.2 93   21 12 16.1 99.04     Rain
23:00 14.2 13.6 97   17 3 16.1 98.92     Rain Showers

Notes on Data Quality.

Legend

  • E = Estimated
  • M = Missing
  • NA = Not Available*
  • [empty] = Indicates an unobserved value
Date modified: